Location: Unspecified
(22.6800°N, 112.2000°E)
Time: 12:44:08
(UTC+08:00)

Transit 2A - Pass Details

Date: 09 August 2021
Orbit: 595 x 963 km, 66.7° (Epoch: 16 September)

Event Time Altitude Azimuth Distance (km) Brightness Sun altitude
Rises 14:11:52 0° 342° (NNW) 3,417 9.4 66.5°
Reaches altitude 10° 14:14:18 10° 345° (NNW) 2,528 8.8 66.0°
Maximum altitude 14:20:10 64° 67° (ENE) 1,020 7.4 64.7°
Drops below altitude 10° 14:26:25 10° 148° (SSE) 2,677 8.8 63.3°
Sets 14:29:02 0° 151° (SSE) 3,632 9.4 62.7°
